Location: Bílinka
(49.3579°N, 14.3767°E)
Time: 02:19:37
(UTC+00:00)

FENGYUN 1C DEB - Pass Details

Date: 24 February 2024
Orbit: 849 x 891 km, 98.8° (Epoch: 24 April)

Event Time Altitude Azimuth Distance (km) Brightness Sun altitude
Rises 17:04:41 0° 140° (SE) 3,408 ? -5.4°
Reaches altitude 10° 17:07:09 10° 133° (SE) 2,479 ? -5.8°
Maximum altitude 17:12:16 42° 65° (ENE) 1,217 ? -6.6°
Drops below altitude 10° 17:17:27 10° 357° (N) 2,514 ? -7.4°
Sets 17:19:58 0° 350° (N) 3,462 ? -7.8°
